Location: Haliburton Scout Reserve
(45.0900°N, 78.3200°W)
Time: 06:21:08
(UTC-05:00)

ISS - Visible Passes

Search period start: 29 November 2022 00:00
Search period end: 09 December 2022 00:00
Orbit: 411 x 420 km, 51.6° (Epoch: 29 November)

Date Brightness Start Highest point End Pass type
(mag) Time Alt. Az. Time Alt. Az. Time Alt. Az.
29 Nov -2.6 18:03:57 10° NW 18:06:54 28° N 18:07:19 27° NNE visible
30 Nov -2.4 17:15:09 10° NW 17:18:01 26° N 17:20:38 11° ENE visible
30 Nov -1.8 18:51:55 10° NW 18:53:32 25° NW 18:53:32 25° NW visible
01 Dec -3.2 18:03:12 10° NW 18:06:22 40° NNE 18:06:54 37° NE visible
02 Dec -2.8 17:14:26 10° NW 17:17:29 32° NNE 17:20:21 11° ENE visible
02 Dec -2.3 18:51:05 10° WNW 18:53:15 36° WNW 18:53:15 36° WNW visible
03 Dec -3.9 18:02:16 10° WNW 18:05:36 77° NNE 18:06:49 36° ESE visible
04 Dec -3.6 17:13:27 10° NW 17:16:43 51° NNE 17:19:59 10° ESE visible
04 Dec -1.9 18:50:25 10° W 18:53:18 27° SW 18:53:30 27° SW visible
05 Dec -2.7 18:01:21 10° WNW 18:04:33 45° SW 18:07:31 11° SE visible
06 Dec -3.6 17:12:23 10° WNW 17:15:42 75° SSW 17:19:00 10° SE visible
06 Dec -0.5 18:50:49 10° WSW 18:51:53 11° SW 18:52:57 10° SSW visible
07 Dec -0.9 18:00:47 10° W 18:03:11 19° SW 18:05:35 10° S visible
08 Dec -1.6 17:11:25 10° WNW 17:14:24 30° SW 17:17:20 10° SSE visible
